Regional Weather Roundup
Issued by NWS

Home | Current Version | Previous Version | Text Only | Print | Product List | Glossary Off
Versions: 1 2 3 4 5 6 7 8 9 10 11 12 13 14 15 16 17 18 19 20 21 22 23 24 25 26 27

000
ASUS45 KBOU 250007
RWRCO

WEATHER ROUNDUP FOR COLORADO
NATIONAL WEATHER SERVICE DENVER/BOULDER CO
600 PM MDT WED MAY 24 2017

NOTE: "FAIR" INDICATES FEW OR NO CLOUDS BELOW 12000 FEET WITH NO
SIGNIFICANT WEATHER AND/OR OBSTRUCTIONS TO VISIBILITY.

COZ001>005-013-030-031-250100-
...NORTHWEST COLORADO...

CITY           SKY/WX    TMP DP  RH WIND       PRES   REMARKS
CRAIG          FAIR      77  28  16 W22G32    29.69F
HAYDEN         FAIR      73  28  19 W22G32    29.71F
MEEKER         PTSUNNY   76  30  18 SW7       29.71F
RABBIT EARS PA CLOUDY    48  30  49 W7        30.00R
STEAMBOAT SPGS FAIR      72  31  22 W16G29    29.74F
WALDEN           N/A     66  27  22 W22G33    29.83F
$$

COZ006>008-011-250100-
...WEST CENTRAL VALLEYS...

CITY           SKY/WX    TMP DP  RH WIND       PRES   REMARKS
GRAND JUNCTION FAIR      88  27  11 W17G26    29.62F
MONTROSE       FAIR      82  26  13 SW10G20   29.73F
EAGLE          SUNNY     75  27  16 W20G32    29.77F
RIFLE          FAIR      83  24  11 SW24      29.68F
DELTA          FAIR      87  21   9 SW12G20   29.67F
NUCLA          FAIR      82  23  11 W14G23    29.79F
$$

COZ017>023-064>068-250100-
...SOUTHWEST COLORADO...

CITY           SKY/WX    TMP DP  RH WIND       PRES   REMARKS
DURANGO        FAIR      77  20  12 NW17G31   29.86F
CORTEZ         FAIR      83  22  10 SW10G23   29.80F
PAGOSA SPRINGS FAIR      74  15  10 SW24G33   29.92F
TELLURIDE      PTSUNNY   66  23  19 W20       30.02F
WOLF CREEK PAS FAIR      46  23  39 SW13G26   30.23F
$$

COZ009-010-012-014-032>034-037-058>063-250100-
...CENTRAL COLORADO...

CITY           SKY/WX    TMP DP  RH WIND       PRES   REMARKS
ASPEN          PTSUNNY   68  28  22 SW7       29.85F
BUENA VISTA    FAIR      71  20  14 W9G20     29.86F
COPPER MTN     FAIR      52  18  25 W31G41    30.12F
BERTHOUD PASS  PTSUNNY   41  32  70 NW33G41   30.12S
COTTONWOOD PAS FAIR      64  16  15 W7G21     30.00F
GUNNISON       FAIR      71  29  21 W17G23    29.87F
KREMMLING      FAIR      79  32  18 W10       29.81F
LEADVILLE      FAIR      57  23  26 SW9G23    29.99F
SALIDA         FAIR      76  22  13 W18       29.91F
SUNLIGHT       FAIR      52  25  35 SW14G25   30.07F
WILKERSON PASS FAIR      54  23  30 SW9G23    30.11F
$$

COZ069>075-250100-
...SAN LUIS VALLEY/SANGRE DE CRISTO MOUNTAINS...

CITY           SKY/WX    TMP DP  RH WIND       PRES   REMARKS
ALAMOSA        CLOUDY    73  28  18 W5        29.85F
DEL NORTE      PTSUNNY   74  24  15 W18       29.88F
LA VETA PASS   FAIR      57  25  28 MISG      30.12F
SAGUACHE       FAIR      73  23  15 NW21      29.88F
$$

COZ035-036-038>040-250100-
...NORTHERN COLORADO FRONT RANGE...

CITY           SKY/WX    TMP DP  RH WIND       PRES   REMARKS
DENVER INTL AP FAIR      82  32  16 NW15G26   29.61F
DMNS CITY PARK   N/A     81  27  13 W6G18     29.60F
AURORA         MOSUNNY   81  33  17 W15       29.64F
FRONT RANGE AP MOSUNNY   82  32  16 W8G22     29.64F
ERIE MUNI ARPT FAIR      83  34  17 SW3       29.60F
BOULDER MUN AP FAIR      82  32  16 W16G24    29.60F
CENTENNIAL     FAIR      80  25  13 W15G30    29.66S
BROOMFIELD     MOSUNNY   82  34  17 W12       29.65S
FORT COLLINS   FAIR      79  36  21 SW6       29.58F
LONGMONT       FAIR      86  31  14 W16G22    29.60S
$$

COZ041-046-047-076>085-087-088-250100-
...PIKES PEAK/PALMER DIVIDE AND SOUTHERN FOOTHILLS...

CITY           SKY/WX    TMP DP  RH WIND       PRES   REMARKS
COLO. SPRINGS  FAIR      78  36  21 VRB6      29.70F
A. F. ACADEMY  FAIR      79  25  13 W14G23    29.71F
SCHRIEVER AFB  FAIR      74  35  23 S21G30    29.70F
CHEYENNE MTN   FAIR      72  35  25 S5        29.70F
ELLICOTT       FAIR     N/A N/A N/A S14       29.69F
FALCON         FAIR      77  24  14 W7        29.76S
FORT CARSON    FAIR      81  34  18 SE13G21   29.66F
LIMON          FAIR      76  38  25 S15G23    29.65F
MONUMENT HILL  FAIR      73  32  21 W13G18    29.77S
CANON CITY     NOT AVBL
WALSENBURG     FAIR      82  32  16 W21G32    29.70S
TRINIDAD       FAIR      82  36  19 S9G20     29.68F
$$

COZ042>045-048>051-090-091-250100-
...NORTHEAST COLORADO...

CITY           SKY/WX    TMP DP  RH WIND       PRES   REMARKS
GREELEY ARPT   FAIR      83  36  18 NW15      29.56F
AKRON          FAIR      80  40  23 W14       29.58F
BURLINGTON     FAIR      75  46  35 S17       29.62F
WRAY           FAIR      81  41  24 S14       29.54F
YUMA           FAIR      79  45  29 S13       29.56S
STERLING       FAIR      82  43  24 W13       29.50F
HOLYOKE        NOT AVBL
FORT MORGAN    FAIR      83  33  16 SW8       29.57F
$$

COZ086-089-092>099-250100-
...SOUTHEAST COLORADO...

CITY           SKY/WX    TMP DP  RH WIND       PRES   REMARKS
PUEBLO         FAIR      89  30  12 W18G25    29.56F
LA JUNTA       FAIR      85  41  21 S15       29.58F
LAMAR          FAIR      84  40  21 S14       29.57F
SPRINGFIELD      N/A     78  41  26 S18       29.65F
$$




USA.gov is the U.S. government's official web portal to all federal, state and local government web resources and services.